Powrót do katalogu

COSMOS 1226

AktywnyMilitariaPO
NORAD 12091·PAYLOAD·🇷🇺 Russia

Wystrzelony Dec 10, 1980 z Plesetsk Cosmodrome

Loading…

Następne Przeloty (najbliższe 24 godziny)

TLE

ŚwieżeSource: Space-Track

Epoka: Sep 14, 2026, 02:38 UTC

1 12091U 80099A   26257.11033626  .00000057  00000-0  43277-4 0  9992
2 12091  82.9393 298.0583 0033774 172.2550 215.4693 13.74728029294974

Śledź COSMOS 1226 w czasie rzeczywistym z AllMySat

Download on the App Store